When you browse on this site, cookies collect data to enhance your experience and personalize the content and advertising you see.
Visit our Privacy Policy to learn more. By continuing to use the site, you agree to this use of cookies and data.
  • în România
  • Lista ţărilor
  • Pe 7 zile
  • Temperatura apei
  • Hartă satelitară
  • Meteo pe hartă
  • Widget-uri
  • user-avatar
    Intrare

    Meteo pe oră la Albuquerque

    Astăzi, 23 Februarie, Sâmbătă

    Timp Temperatura Precipitaţii Vânt Presiune Umiditate
    00:00 -2°C° 0.1 mm 5 m/s 626 mmHg 77%
    01:00 -4°C° 0.1 mm 5 m/s 626 mmHg 76%
    02:00 -4°C° 0.1 mm 5 m/s 626 mmHg 75%
    03:00 -4°C° 0.1 mm 7 m/s 626 mmHg 72%
    04:00 -5°C° 0.1 mm 9 m/s 627 mmHg 69%
    05:00 -4°C° 0 mm 7 m/s 628 mmHg 68%
    06:00 -4°C° 0 mm 7 m/s 629 mmHg 65%
    07:00 -4°C° 0 mm 7 m/s 630 mmHg 63%
    08:00 -5°C° 0 mm 8 m/s 630 mmHg 60%
    09:00 -4°C° 0 mm 8 m/s 631 mmHg 55%
    10:00 -3°C° 0 mm 9 m/s 632 mmHg 50%
    11:00 0°C° 0 mm 9 m/s 632 mmHg 45%
    12:00 0°C° 0 mm 9 m/s 633 mmHg 42%
    13:00 +1°C° 0 mm 8 m/s 633 mmHg 40%
    14:00 +2°C° 0 mm 8 m/s 633 mmHg 37%
    15:00 +3°C° 0 mm 7 m/s 633 mmHg 37%
    16:00 +2°C° 0 mm 6 m/s 633 mmHg 38%
    17:00 +2°C° 0 mm 5 m/s 634 mmHg 38%
    18:00 +1°C° 0 mm 4 m/s 635 mmHg 43%
    19:00 +1°C° 0 mm 3 m/s 635 mmHg 47%
    20:00 +1°C° 0 mm 2 m/s 636 mmHg 52%
    21:00 -1°C° 0 mm 2 m/s 636 mmHg 53%
    22:00 -1°C° 0 mm 2 m/s 637 mmHg 55%
    23:00 0°C° 0 mm 1 m/s 637 mmHg 56%

    Mâine, 24 Februarie, Duminică

    Timp Temperatura Precipitaţii Vânt Presiune Umiditate
    00:00 0°C° 0 mm 1 m/s 637 mmHg 56%
    01:00 0°C° 0 mm 1 m/s 637 mmHg 55%
    02:00 0°C° 0 mm 1 m/s 637 mmHg 55%
    03:00 0°C° 0 mm 1 m/s 637 mmHg 54%
    04:00 0°C° 0 mm 1 m/s 637 mmHg 54%
    05:00 -1°C° 0 mm 0 m/s 637 mmHg 53%
    06:00 -1°C° 0 mm 0 m/s 637 mmHg 50%
    07:00 0°C° 0 mm 0 m/s 637 mmHg 48%
    08:00 +1°C° 0 mm 0 m/s 637 mmHg 45%
    09:00 +2°C° 0 mm 0 m/s 637 mmHg 41%
    10:00 +4°C° 0 mm 1 m/s 636 mmHg 36%
    11:00 +5°C° 0 mm 1 m/s 636 mmHg 32%
    12:00 +6°C° 0 mm 1 m/s 636 mmHg 29%
    13:00 +7°C° 0 mm 1 m/s 635 mmHg 26%
    14:00 +7°C° 0 mm 2 m/s 634 mmHg 23%
    15:00 +8°C° 0 mm 1 m/s 634 mmHg 25%
    16:00 +8°C° 0 mm 1 m/s 634 mmHg 26%
    17:00 +8°C° 0 mm 1 m/s 634 mmHg 27%
    18:00 +7°C° 0 mm 1 m/s 634 mmHg 29%
    19:00 +6°C° 0 mm 1 m/s 634 mmHg 31%
    20:00 +4°C° 0 mm 1 m/s 634 mmHg 34%
    21:00 +4°C° 0 mm 1 m/s 634 mmHg 34%
    22:00 +4°C° 0 mm 1 m/s 634 mmHg 35%
    23:00 +3°C° 0 mm 0 m/s 634 mmHg 36%

    Poimâine, 25 Februarie, Luni

    Timp Temperatura Precipitaţii Vânt Presiune Umiditate
    00:00 +2°C° 0 mm 0 m/s 634 mmHg 37%
    01:00 +2°C° 0 mm 0 m/s 634 mmHg 37%
    02:00 +2°C° 0 mm 0 m/s 634 mmHg 38%
    03:00 +2°C° 0 mm 0 m/s 633 mmHg 38%
    04:00 +1°C° 0 mm 0 m/s 633 mmHg 38%
    05:00 +1°C° 0 mm 0 m/s 633 mmHg 38%
    06:00 +2°C° 0 mm 0 m/s 633 mmHg 37%
    07:00 +3°C° 0 mm 0 m/s 634 mmHg 36%
    08:00 +4°C° 0 mm 0 m/s 634 mmHg 35%
    09:00 +7°C° 0 mm 1 m/s 634 mmHg 33%
    10:00 +8°C° 0 mm 1 m/s 634 mmHg 31%
    11:00 +8°C° 0 mm 2 m/s 634 mmHg 29%
    12:00 +9°C° 0 mm 2 m/s 634 mmHg 27%
    13:00 +10°C° 0 mm 3 m/s 633 mmHg 26%
    14:00 +11°C° 0 mm 3 m/s 633 mmHg 24%
    15:00 +12°C° 0 mm 2 m/s 633 mmHg 25%
    16:00 +12°C° 0 mm 2 m/s 634 mmHg 26%
    17:00 +12°C° 0 mm 1 m/s 634 mmHg 27%
    18:00 +11°C° 0 mm 1 m/s 634 mmHg 30%
    19:00 +9°C° 0 mm 1 m/s 634 mmHg 33%
    20:00 +8°C° 0 mm 1 m/s 634 mmHg 37%
    21:00 +7°C° 0 mm 1 m/s 633 mmHg 38%
    22:00 +7°C° 0 mm 1 m/s 633 mmHg 40%
    23:00 +6°C° 0 mm 1 m/s 633 mmHg 41%

    26 Februarie, Marţi

    Timp Temperatura Precipitaţii Vânt Presiune Umiditate
    00:00 +6°C° 0 mm 1 m/s 633 mmHg 42%
    01:00 +5°C° 0 mm 1 m/s 633 mmHg 43%
    02:00 +5°C° 0 mm 1 m/s 633 mmHg 45%
    03:00 +5°C° 0 mm 1 m/s 633 mmHg 45%
    04:00 +4°C° 0 mm 1 m/s 633 mmHg 46%
    05:00 +4°C° 0 mm 1 m/s 632 mmHg 47%
    06:00 +5°C° 0 mm 1 m/s 633 mmHg 47%
    07:00 +6°C° 0 mm 1 m/s 634 mmHg 46%
    08:00 +7°C° 0 mm 1 m/s 634 mmHg 45%
    09:00 +8°C° 0 mm 1 m/s 634 mmHg 42%
    10:00 +8°C° 0 mm 2 m/s 635 mmHg 39%
    11:00 +10°C° 0 mm 2 m/s 635 mmHg 36%
    12:00 +12°C° 0 mm 2 m/s 635 mmHg 34%
    13:00 +13°C° 0 mm 2 m/s 634 mmHg 31%
    14:00 +14°C° 0 mm 2 m/s 634 mmHg 29%
    15:00 +13°C° 0 mm 3 m/s 634 mmHg 29%
    16:00 +14°C° 0 mm 3 m/s 635 mmHg 29%
    17:00 +14°C° 0 mm 4 m/s 635 mmHg 29%
    18:00 +12°C° 0 mm 3 m/s 635 mmHg 34%
    19:00 +11°C° 0 mm 3 m/s 635 mmHg 38%
    20:00 +9°C° 0 mm 2 m/s 635 mmHg 43%
    21:00 +9°C° 0 mm 2 m/s 634 mmHg 46%
    22:00 +9°C° 0 mm 1 m/s 634 mmHg 49%
    23:00 +8°C° 0 mm 1 m/s 634 mmHg 52%

    27 Februarie, Miercuri

    Timp Temperatura Precipitaţii Vânt Presiune Umiditate
    00:00 +8°C° 0 mm 1 m/s 634 mmHg 52%
    01:00 +7°C° 0 mm 1 m/s 634 mmHg 53%
    02:00 +7°C° 0 mm 1 m/s 634 mmHg 53%
    03:00 +6°C° 0 mm 1 m/s 634 mmHg 55%
    04:00 +6°C° 0 mm 1 m/s 634 mmHg 57%
    05:00 +5°C° 0 mm 1 m/s 634 mmHg 58%
    06:00 +6°C° 0 mm 1 m/s 634 mmHg 56%
    07:00 +7°C° 0 mm 1 m/s 635 mmHg 54%
    08:00 +8°C° 0 mm 1 m/s 635 mmHg 52%
    09:00 +9°C° 0 mm 1 m/s 635 mmHg 47%
    10:00 +11°C° 0 mm 1 m/s 636 mmHg 41%
    11:00 +12°C° 0 mm 1 m/s 636 mmHg 35%
    12:00 +13°C° 0 mm 1 m/s 636 mmHg 32%
    13:00 +14°C° 0 mm 1 m/s 635 mmHg 29%
    14:00 +15°C° 0 mm 2 m/s 635 mmHg 26%
    15:00 +16°C° 0 mm 2 m/s 635 mmHg 26%
    16:00 +16°C° 0 mm 2 m/s 636 mmHg 26%
    17:00 +17°C° 0 mm 2 m/s 636 mmHg 25%
    18:00 +15°C° 0 mm 2 m/s 636 mmHg 29%
    19:00 +14°C° 0 mm 2 m/s 636 mmHg 33%
    20:00 +13°C° 0 mm 2 m/s 636 mmHg 37%
    21:00 +12°C° 0 mm 2 m/s 636 mmHg 39%
    22:00 +10°C° 0 mm 2 m/s 635 mmHg 41%
    23:00 +10°C° 0 mm 2 m/s 635 mmHg 44%

    28 Februarie, Joi

    Timp Temperatura Precipitaţii Vânt Presiune Umiditate
    00:00 +9°C° 0 mm 2 m/s 635 mmHg 46%
    01:00 +8°C° 0 mm 2 m/s 634 mmHg 49%
    02:00 +8°C° 0 mm 2 m/s 634 mmHg 52%
    03:00 +7°C° 0 mm 2 m/s 634 mmHg 55%
    04:00 +8°C° 0 mm 1 m/s 633 mmHg 57%
    05:00 +7°C° 0 mm 1 m/s 633 mmHg 60%
    06:00 +8°C° 0 mm 1 m/s 633 mmHg 57%
    07:00 +8°C° 0 mm 1 m/s 634 mmHg 55%
    08:00 +9°C° 0 mm 1 m/s 634 mmHg 53%
    09:00 +10°C° 0 mm 2 m/s 634 mmHg 46%
    10:00 +12°C° 0 mm 3 m/s 635 mmHg 39%
    11:00 +13°C° 0 mm 3 m/s 635 mmHg 33%
    12:00 +15°C° 0 mm 4 m/s 634 mmHg 31%
    13:00 +16°C° 0 mm 5 m/s 634 mmHg 28%
    14:00 +17°C° 0 mm 6 m/s 634 mmHg 26%
    15:00 +17°C° 0 mm 7 m/s 634 mmHg 26%
    16:00 +17°C° 0 mm 7 m/s 633 mmHg 25%
    17:00 +16°C° 0 mm 7 m/s 633 mmHg 25%
    18:00 +15°C° 0 mm 6 m/s 633 mmHg 29%
    19:00 +14°C° 0 mm 4 m/s 633 mmHg 33%
    20:00 +12°C° 0 mm 3 m/s 633 mmHg 37%
    21:00 +11°C° 0 mm 3 m/s 632 mmHg 38%
    22:00 +11°C° 0 mm 3 m/s 632 mmHg 40%
    23:00 +10°C° 0 mm 3 m/s 632 mmHg 42%
    Arată mai mult